Time,TemperatureF,DewpointF,PressureIn,WindDirection,WindDirectionDegrees,WindSpeedMPH,WindSpeedGustMPH,Humidity,HourlyPrecipIn,Conditions,Clouds,dailyrainin,SoftwareType,DateUTC
2013-11-27 00:02:00,15.8,6.1,29.57,North,0,0.0,0.0,65,0.00,,---,0.00,VWS V12.08,2013-11-27 06:02:00,
2013-11-27 00:08:00,15.8,6.5,29.57,North,0,0.0,0.0,66,0.00,,---,0.00,VWS V12.08,2013-11-27 06:08:00,
2013-11-27 00:14:00,15.6,6.3,29.57,North,359,0.0,0.0,66,0.00,,---,0.00,VWS V12.08,2013-11-27 06:14:00,
2013-11-27 00:19:00,15.4,6.4,29.57,North,0,0.0,0.0,67,0.00,,---,0.00,VWS V12.08,2013-11-27 06:19:00,
2013-11-27 00:25:00,15.2,5.9,29.57,North,359,0.0,0.0,66,0.00,,---,0.00,VWS V12.08,2013-11-27 06:25:00,
2013-11-27 00:31:00,15.1,6.1,29.58,North,356,0.0,0.0,67,0.00,,---,0.00,VWS V12.08,2013-11-27 06:31:00,
2013-11-27 00:37:00,15.0,6.0,29.58,North,0,0.0,0.0,67,0.00,,---,0.00,VWS V12.08,2013-11-27 06:37:00,
2013-11-27 00:43:00,15.0,6.0,29.57,North,0,0.0,0.0,67,0.00,,---,0.00,VWS V12.08,2013-11-27 06:43:00,
2013-11-27 00:48:00,15.0,6.0,29.57,North,358,0.0,0.0,67,0.00,,---,0.00,VWS V12.08,2013-11-27 06:48:00,
2013-11-27 00:58:00,15.0,6.0,29.58,North,0,0.0,0.0,67,0.00,,---,0.00,VWS V12.08,2013-11-27 06:58:00,
2013-11-27 01:03:00,15.0,5.7,29.58,North,358,0.0,0.0,66,0.00,,---,0.00,VWS V12.08,2013-11-27 07:03:00,
2013-11-27 01:08:00,14.9,5.9,29.58,North,0,0.0,0.0,67,0.00,,---,0.00,VWS V12.08,2013-11-27 07:08:00,
2013-11-27 01:13:00,14.9,5.9,29.58,North,0,0.0,0.0,67,0.00,,---,0.00,VWS V12.08,2013-11-27 07:13:00,
2013-11-27 01:19:00,14.9,5.9,29.58,North,359,0.0,0.0,67,0.00,,---,0.00,VWS V12.08,2013-11-27 07:19:00,
2013-11-27 01:24:00,14.9,5.9,29.58,North,351,0.0,0.0,67,0.00,,---,0.00,VWS V12.08,2013-11-27 07:24:00,
2013-11-27 01:29:00,14.9,5.9,29.59,North,358,0.0,0.0,67,0.00,,---,0.00,VWS V12.08,2013-11-27 07:29:00,
2013-11-27 01:34:00,14.8,5.8,29.58,North,0,0.0,0.0,67,0.00,,---,0.00,VWS V12.08,2013-11-27 07:34:00,
2013-11-27 01:40:00,14.7,5.8,29.58,North,350,0.0,0.0,67,0.00,,---,0.00,VWS V12.08,2013-11-27 07:40:00,
2013-11-27 01:45:00,14.7,5.8,29.58,North,356,0.0,0.0,67,0.00,,---,0.00,VWS V12.08,2013-11-27 07:45:00,
2013-11-27 01:51:00,14.6,5.7,29.58,North,0,0.0,0.0,67,0.00,,---,0.00,VWS V12.08,2013-11-27 07:51:00,
2013-11-27 01:57:00,14.5,5.6,29.58,North,0,0.0,0.0,67,0.00,,---,0.00,VWS V12.08,2013-11-27 07:57:00,
2013-11-27 02:02:00,14.4,5.8,29.59,North,0,0.0,0.0,68,0.00,,---,0.00,VWS V12.08,2013-11-27 08:02:00,
2013-11-27 02:08:00,14.3,5.7,29.59,North,0,0.0,0.0,68,0.00,,---,0.00,VWS V12.08,2013-11-27 08:08:00,
2013-11-27 02:14:00,14.2,5.6,29.59,North,0,0.0,0.0,68,0.00,,---,0.00,VWS V12.08,2013-11-27 08:14:00,
2013-11-27 02:19:00,14.3,5.7,29.59,North,0,0.0,0.0,68,0.00,,---,0.00,VWS V12.08,2013-11-27 08:19:00,
2013-11-27 02:24:00,14.3,5.7,29.59,North,359,0.0,0.0,68,0.00,,---,0.00,VWS V12.08,2013-11-27 08:24:00,
2013-11-27 02:29:00,14.3,5.7,29.59,North,0,0.0,0.0,68,0.00,,---,0.00,VWS V12.08,2013-11-27 08:29:00,
2013-11-27 02:34:00,14.2,5.6,29.59,North,356,0.0,0.0,68,0.00,,---,0.00,VWS V12.08,2013-11-27 08:34:00,
2013-11-27 02:39:00,14.2,5.6,29.58,NNW,339,0.0,0.0,68,0.00,,---,0.00,VWS V12.08,2013-11-27 08:39:00,
2013-11-27 02:44:00,14.1,5.5,29.59,North,0,0.0,0.0,68,0.00,,---,0.00,VWS V12.08,2013-11-27 08:44:00,
2013-11-27 02:50:00,14.1,5.5,29.59,North,0,0.0,0.0,68,0.00,,---,0.00,VWS V12.08,2013-11-27 08:50:00,
2013-11-27 02:55:00,14.0,5.4,29.59,NNW,343,0.0,0.0,68,0.00,,---,0.00,VWS V12.08,2013-11-27 08:55:00,
2013-11-27 03:00:00,14.0,5.4,29.59,North,0,0.0,0.0,68,0.00,,---,0.00,VWS V12.08,2013-11-27 09:00:00,
2013-11-27 03:05:00,13.9,5.3,29.59,North,0,0.0,0.0,68,0.00,,---,0.00,VWS V12.08,2013-11-27 09:05:00,
2013-11-27 03:10:00,13.8,5.2,29.58,North,0,0.0,0.0,68,0.00,,---,0.00,VWS V12.08,2013-11-27 09:10:00,
2013-11-27 03:15:00,13.7,5.1,29.59,North,358,0.0,0.0,68,0.00,,---,0.00,VWS V12.08,2013-11-27 09:15:00,
2013-11-27 03:20:00,13.6,5.0,29.59,North,356,0.0,0.0,68,0.00,,---,0.00,VWS V12.08,2013-11-27 09:20:00,
2013-11-27 03:25:00,13.6,5.0,29.58,North,0,0.0,0.0,68,0.00,,---,0.00,VWS V12.08,2013-11-27 09:25:00,
2013-11-27 03:30:00,13.5,4.9,29.58,North,357,0.0,0.0,68,0.00,,---,0.00,VWS V12.08,2013-11-27 09:30:00,
2013-11-27 03:35:00,13.4,4.8,29.58,North,356,0.0,0.0,68,0.00,,---,0.00,VWS V12.08,2013-11-27 09:35:00,
2013-11-27 03:40:00,13.3,4.7,29.58,North,355,0.0,0.0,68,0.00,,---,0.00,VWS V12.08,2013-11-27 09:40:00,
2013-11-27 03:45:00,13.3,4.7,29.59,North,0,0.0,0.0,68,0.00,,---,0.00,VWS V12.08,2013-11-27 09:45:00,
2013-11-27 03:51:00,13.1,4.5,29.59,North,0,0.0,0.0,68,0.00,,---,0.00,VWS V12.08,2013-11-27 09:51:00,
2013-11-27 03:56:00,13.1,4.5,29.59,North,359,0.0,0.0,68,0.00,,---,0.00,VWS V12.08,2013-11-27 09:56:00,
2013-11-27 04:02:00,13.0,4.8,29.58,North,0,0.0,0.0,69,0.00,,---,0.00,VWS V12.08,2013-11-27 10:02:00,
2013-11-27 04:08:00,12.9,4.7,29.59,North,354,0.0,0.0,69,0.00,,---,0.00,VWS V12.08,2013-11-27 10:08:00,
2013-11-27 04:13:00,12.9,4.7,29.59,North,349,0.0,0.0,69,0.00,,---,0.00,VWS V12.08,2013-11-27 10:13:00,
2013-11-27 04:18:00,12.8,4.6,29.59,North,358,0.0,0.0,69,0.00,,---,0.00,VWS V12.08,2013-11-27 10:18:00,
2013-11-27 04:24:00,12.6,4.7,29.59,North,0,0.0,0.0,70,0.00,,---,0.00,VWS V12.08,2013-11-27 10:24:00,
2013-11-27 04:29:00,12.5,4.3,29.59,North,0,0.0,0.0,69,0.00,,---,0.00,VWS V12.08,2013-11-27 10:29:00,
2013-11-27 04:34:00,12.4,4.5,29.58,North,359,0.0,0.0,70,0.00,,---,0.00,VWS V12.08,2013-11-27 10:34:00,
2013-11-27 04:40:00,12.3,4.4,29.59,North,358,0.0,0.0,70,0.00,,---,0.00,VWS V12.08,2013-11-27 10:40:00,
2013-11-27 04:45:00,12.3,4.4,29.60,North,358,0.0,0.0,70,0.00,,---,0.00,VWS V12.08,2013-11-27 10:45:00,
2013-11-27 04:50:00,12.2,4.3,29.59,North,356,0.0,0.0,70,0.00,,---,0.00,VWS V12.08,2013-11-27 10:50:00,
2013-11-27 04:55:00,12.1,4.2,29.59,North,359,0.0,0.0,70,0.00,,---,0.00,VWS V12.08,2013-11-27 10:55:00,
2013-11-27 05:00:00,12.1,4.2,29.58,North,0,0.0,0.0,70,0.00,,---,0.00,VWS V12.08,2013-11-27 11:00:00,
2013-11-27 05:05:00,12.1,4.2,29.59,North,0,0.0,0.0,70,0.00,,---,0.00,VWS V12.08,2013-11-27 11:05:00,
2013-11-27 05:10:00,11.9,4.0,29.59,North,359,0.0,0.0,70,0.00,,---,0.00,VWS V12.08,2013-11-27 11:10:00,
2013-11-27 05:15:00,11.9,4.0,29.59,North,0,0.0,0.0,70,0.00,,---,0.00,VWS V12.08,2013-11-27 11:15:00,
2013-11-27 05:20:00,11.9,4.0,29.59,North,0,0.0,0.0,70,0.00,,---,0.00,VWS V12.08,2013-11-27 11:20:00,
2013-11-27 05:25:00,11.8,3.9,29.60,North,357,0.0,0.0,70,0.00,,---,0.00,VWS V12.08,2013-11-27 11:25:00,
2013-11-27 05:30:00,11.8,3.9,29.60,NNW,346,0.0,0.0,70,0.00,,---,0.00,VWS V12.08,2013-11-27 11:30:00,
2013-11-27 05:36:00,11.7,3.8,29.59,North,0,0.0,0.0,70,0.00,,---,0.00,VWS V12.08,2013-11-27 11:36:00,
2013-11-27 05:42:00,11.7,4.1,29.60,North,0,0.0,0.0,71,0.00,,---,0.00,VWS V12.08,2013-11-27 11:42:00,
2013-11-27 05:47:00,11.7,4.1,29.60,North,0,0.0,0.0,71,0.00,,---,0.00,VWS V12.08,2013-11-27 11:47:00,
2013-11-27 05:52:00,11.5,3.9,29.60,NNW,338,0.0,0.0,71,0.00,,---,0.00,VWS V12.08,2013-11-27 11:52:00,
2013-11-27 05:57:00,11.5,3.9,29.60,North,0,0.0,0.0,71,0.00,,---,0.00,VWS V12.08,2013-11-27 11:57:00,
2013-11-27 06:03:00,11.4,3.8,29.61,NNW,347,0.0,0.0,71,0.00,,---,0.00,VWS V12.08,2013-11-27 12:03:00,
2013-11-27 06:08:00,11.2,3.7,29.61,North,0,0.0,0.0,71,0.00,,---,0.00,VWS V12.08,2013-11-27 12:08:00,
2013-11-27 06:13:00,11.2,3.7,29.60,North,357,0.0,0.0,71,0.00,,---,0.00,VWS V12.08,2013-11-27 12:13:00,
2013-11-27 06:18:00,11.1,3.5,29.61,North,358,0.0,0.0,71,0.00,,---,0.00,VWS V12.08,2013-11-27 12:18:00,
2013-11-27 06:24:00,11.1,3.5,29.61,North,357,0.0,0.0,71,0.00,,---,0.00,VWS V12.08,2013-11-27 12:24:00,
2013-11-27 06:29:00,10.9,3.4,29.62,North,356,0.0,0.0,71,0.00,,---,0.00,VWS V12.08,2013-11-27 12:29:00,
2013-11-27 06:34:00,10.9,3.4,29.61,North,351,0.0,0.0,71,0.00,,---,0.00,VWS V12.08,2013-11-27 12:34:00,
2013-11-27 06:39:00,10.8,3.3,29.61,North,0,0.0,0.0,71,0.00,,---,0.00,VWS V12.08,2013-11-27 12:39:00,
2013-11-27 06:44:00,10.8,3.3,29.62,North,0,0.0,0.0,71,0.00,,---,0.00,VWS V12.08,2013-11-27 12:44:00,
2013-11-27 06:50:00,10.7,3.2,29.62,North,0,0.0,0.0,71,0.00,,---,0.00,VWS V12.08,2013-11-27 12:50:00,
2013-11-27 06:55:00,10.7,3.2,29.62,North,0,0.0,0.0,71,0.00,,---,0.00,VWS V12.08,2013-11-27 12:55:00,
2013-11-27 07:00:00,10.6,3.1,29.61,North,0,0.0,0.0,71,0.00,,---,0.00,VWS V12.08,2013-11-27 13:00:00,
2013-11-27 07:05:00,10.6,3.1,29.62,North,0,0.0,0.0,71,0.00,,---,0.00,VWS V12.08,2013-11-27 13:05:00,
2013-11-27 07:10:00,10.5,3.0,29.62,North,358,0.0,0.0,71,0.00,,---,0.00,VWS V12.08,2013-11-27 13:10:00,
2013-11-27 07:15:00,10.6,3.1,29.62,North,359,0.0,0.0,71,0.00,,---,0.00,VWS V12.08,2013-11-27 13:15:00,
2013-11-27 07:20:00,10.5,3.0,29.61,North,359,0.0,0.0,71,0.00,,---,0.00,VWS V12.08,2013-11-27 13:20:00,
2013-11-27 07:25:00,10.5,3.0,29.62,North,358,0.0,0.0,71,0.00,,---,0.00,VWS V12.08,2013-11-27 13:25:00,
2013-11-27 07:31:00,10.6,3.1,29.62,North,359,0.0,0.0,71,0.00,,---,0.00,VWS V12.08,2013-11-27 13:31:00,
2013-11-27 07:36:00,10.6,3.1,29.62,North,0,0.0,0.0,71,0.00,,---,0.00,VWS V12.08,2013-11-27 13:36:00,
2013-11-27 07:41:00,10.7,3.2,29.61,North,359,0.0,0.0,71,0.00,,---,0.00,VWS V12.08,2013-11-27 13:41:00,
2013-11-27 07:47:00,10.9,3.4,29.62,North,0,0.0,0.0,71,0.00,,---,0.00,VWS V12.08,2013-11-27 13:47:00,
2013-11-27 07:52:00,10.9,3.4,29.63,North,359,0.0,0.0,71,0.00,,---,0.00,VWS V12.08,2013-11-27 13:52:00,
2013-11-27 07:57:00,10.9,3.0,29.62,North,358,0.0,0.0,70,0.00,,---,0.00,VWS V12.08,2013-11-27 13:57:00,
2013-11-27 08:02:00,11.1,3.2,29.62,North,0,0.0,0.0,70,0.00,,---,0.00,VWS V12.08,2013-11-27 14:02:00,
2013-11-27 08:08:00,11.4,3.8,29.62,North,0,0.0,0.0,71,0.00,,---,0.00,VWS V12.08,2013-11-27 14:08:00,
2013-11-27 08:13:00,11.6,4.0,29.62,NNW,348,0.0,0.0,71,0.00,,---,0.00,VWS V12.08,2013-11-27 14:13:00,
2013-11-27 08:18:00,11.9,4.0,29.62,North,0,0.0,0.0,70,0.00,,---,0.00,VWS V12.08,2013-11-27 14:18:00,
2013-11-27 08:23:00,12.0,4.1,29.63,North,358,0.0,0.0,70,0.00,,---,0.00,VWS V12.08,2013-11-27 14:23:00,
2013-11-27 08:28:00,12.2,4.0,29.62,North,355,0.0,0.0,69,0.00,,---,0.00,VWS V12.08,2013-11-27 14:28:00,
2013-11-27 08:33:00,12.5,4.3,29.63,North,353,0.0,0.0,69,0.00,,---,0.00,VWS V12.08,2013-11-27 14:33:00,
2013-11-27 08:38:00,12.8,4.6,29.62,North,0,0.0,0.0,69,0.00,,---,0.00,VWS V12.08,2013-11-27 14:38:00,
2013-11-27 08:43:00,13.0,4.4,29.63,North,359,0.0,0.0,68,0.00,,---,0.00,VWS V12.08,2013-11-27 14:43:00,
2013-11-27 08:49:00,13.2,4.6,29.63,North,359,0.0,0.0,68,0.00,,---,0.00,VWS V12.08,2013-11-27 14:49:00,
2013-11-27 08:55:00,13.6,5.0,29.63,North,353,0.0,0.0,68,0.00,,---,0.00,VWS V12.08,2013-11-27 14:55:00,
2013-11-27 09:01:00,13.7,4.8,29.63,North,0,0.0,0.0,67,0.00,,---,0.00,VWS V12.08,2013-11-27 15:01:00,
2013-11-27 09:07:00,14.1,5.5,29.63,North,0,0.0,0.0,68,0.00,,---,0.00,VWS V12.08,2013-11-27 15:07:00,
2013-11-27 09:12:00,14.2,5.3,29.63,North,0,0.0,0.0,67,0.00,,---,0.00,VWS V12.08,2013-11-27 15:12:00,
2013-11-27 09:17:00,14.4,5.5,29.62,North,0,0.0,0.0,67,0.00,,---,0.00,VWS V12.08,2013-11-27 15:17:00,
2013-11-27 09:22:00,14.4,5.5,29.62,North,359,0.0,0.0,67,0.00,,---,0.00,VWS V12.08,2013-11-27 15:22:00,
2013-11-27 09:28:00,14.7,5.8,29.62,North,0,0.0,0.0,67,0.00,,---,0.00,VWS V12.08,2013-11-27 15:28:00,
2013-11-27 09:33:00,15.0,6.0,29.62,North,0,0.0,0.0,67,0.00,,---,0.00,VWS V12.08,2013-11-27 15:33:00,
2013-11-27 09:38:00,15.4,6.4,29.63,North,0,0.0,0.0,67,0.00,,---,0.00,VWS V12.08,2013-11-27 15:38:00,
2013-11-27 09:44:00,15.5,6.2,29.63,North,358,0.0,0.0,66,0.00,,---,0.00,VWS V12.08,2013-11-27 15:44:00,
2013-11-27 09:49:00,15.7,6.4,29.62,North,0,0.0,0.0,66,0.00,,---,0.00,VWS V12.08,2013-11-27 15:49:00,
2013-11-27 09:54:00,16.0,6.3,29.63,North,0,0.0,0.0,65,0.00,,---,0.00,VWS V12.08,2013-11-27 15:54:00,
2013-11-27 10:00:00,16.1,6.4,29.62,North,359,0.0,0.0,65,0.00,,---,0.00,VWS V12.08,2013-11-27 16:00:00,
2013-11-27 10:05:00,16.3,6.6,29.62,North,0,0.0,0.0,65,0.00,,---,0.00,VWS V12.08,2013-11-27 16:05:00,
2013-11-27 10:10:00,16.4,6.7,29.62,North,0,0.0,0.0,65,0.00,,---,0.00,VWS V12.08,2013-11-27 16:10:00,
2013-11-27 10:15:00,16.6,6.9,29.63,NW,325,0.0,0.0,65,0.00,,---,0.00,VWS V12.08,2013-11-27 16:15:00,
2013-11-27 10:20:00,16.9,7.2,29.62,North,0,0.0,0.0,65,0.00,,---,0.00,VWS V12.08,2013-11-27 16:20:00,
2013-11-27 10:25:00,16.9,6.8,29.62,North,0,0.0,0.0,64,0.00,,---,0.00,VWS V12.08,2013-11-27 16:25:00,
2013-11-27 10:30:00,17.1,7.4,29.62,North,350,0.0,0.0,65,0.00,,---,0.00,VWS V12.08,2013-11-27 16:30:00,
2013-11-27 10:35:00,17.6,7.8,29.61,North,351,0.0,1.0,65,0.00,,---,0.00,VWS V12.08,2013-11-27 16:35:00,
2013-11-27 10:41:00,18.1,8.0,29.61,North,0,0.0,1.0,64,0.00,,---,0.00,VWS V12.08,2013-11-27 16:41:00,
2013-11-27 10:46:00,18.3,7.8,29.62,North,353,0.0,1.0,63,0.00,,---,0.00,VWS V12.08,2013-11-27 16:46:00,
2013-11-27 10:51:00,18.3,7.5,29.62,North,356,0.0,1.0,62,0.00,,---,0.00,VWS V12.08,2013-11-27 16:51:00,
2013-11-27 10:57:00,18.5,8.0,29.61,North,357,0.0,1.0,63,0.00,,---,0.00,VWS V12.08,2013-11-27 16:57:00,
2013-11-27 11:02:00,18.6,7.4,29.61,North,0,0.0,0.0,61,0.00,,---,0.00,VWS V12.08,2013-11-27 17:02:00,
2013-11-27 11:08:00,18.6,7.8,29.60,North,0,0.0,0.0,62,0.00,,---,0.00,VWS V12.08,2013-11-27 17:08:00,
2013-11-27 11:14:00,19.2,8.0,29.59,North,0,0.0,1.0,61,0.00,,---,0.00,VWS V12.08,2013-11-27 17:14:00,
2013-11-27 11:19:00,19.2,8.0,29.59,North,359,0.0,1.0,61,0.00,,---,0.00,VWS V12.08,2013-11-27 17:19:00,
2013-11-27 11:24:00,19.3,7.7,29.60,North,0,0.0,1.0,60,0.00,,---,0.00,VWS V12.08,2013-11-27 17:24:00,
2013-11-27 11:30:00,19.2,6.9,29.59,North,0,0.0,1.0,58,0.00,,---,0.00,VWS V12.08,2013-11-27 17:30:00,
2013-11-27 11:35:00,19.4,7.1,29.59,North,358,0.0,0.0,58,0.00,,---,0.00,VWS V12.08,2013-11-27 17:35:00,
2013-11-27 11:40:00,19.7,7.3,29.58,North,359,0.0,0.0,58,0.00,,---,0.00,VWS V12.08,2013-11-27 17:40:00,
2013-11-27 11:45:00,20.0,7.6,29.59,North,0,0.0,0.0,58,0.00,,---,0.00,VWS V12.08,2013-11-27 17:45:00,
2013-11-27 11:50:00,20.1,7.3,29.58,North,355,0.0,0.0,57,0.00,,---,0.00,VWS V12.08,2013-11-27 17:50:00,
2013-11-27 11:55:00,20.4,7.2,29.58,North,351,0.0,0.0,56,0.00,,---,0.00,VWS V12.08,2013-11-27 17:55:00,
2013-11-27 12:01:00,20.6,7.8,29.57,NNW,348,0.0,0.0,57,0.00,,---,0.00,VWS V12.08,2013-11-27 18:01:00,
2013-11-27 12:06:00,21.0,8.2,29.57,North,353,0.0,0.0,57,0.00,,---,0.00,VWS V12.08,2013-11-27 18:06:00,
2013-11-27 12:11:00,21.0,7.8,29.58,NNW,331,0.0,1.0,56,0.00,,---,0.00,VWS V12.08,2013-11-27 18:11:00,
2013-11-27 12:16:00,20.8,7.2,29.58,North,350,0.0,1.0,55,0.00,,---,0.00,VWS V12.08,2013-11-27 18:16:00,
2013-11-27 12:21:00,21.0,7.8,29.57,North,355,0.0,1.0,56,0.00,,---,0.00,VWS V12.08,2013-11-27 18:21:00,
2013-11-27 12:27:00,21.4,8.1,29.57,NNW,338,0.0,1.0,56,0.00,,---,0.00,VWS V12.08,2013-11-27 18:27:00,
2013-11-27 12:33:00,21.4,7.8,29.57,North,358,0.0,0.0,55,0.00,,---,0.00,VWS V12.08,2013-11-27 18:33:00,
2013-11-27 12:39:00,21.5,7.4,29.58,North,355,0.0,1.0,54,0.00,,---,0.00,VWS V12.08,2013-11-27 18:39:00,
2013-11-27 12:44:00,21.8,8.1,29.58,NNW,331,0.0,1.0,55,0.00,,---,0.00,VWS V12.08,2013-11-27 18:44:00,
2013-11-27 12:50:00,22.3,8.6,29.58,North,357,0.0,1.0,55,0.00,,---,0.00,VWS V12.08,2013-11-27 18:50:00,
2013-11-27 12:56:00,22.5,8.4,29.57,NNW,338,0.0,1.0,54,0.00,,---,0.00,VWS V12.08,2013-11-27 18:56:00,
2013-11-27 13:00:00,22.6,8.1,29.57,WNW,303,0.0,1.0,53,0.00,,---,0.00,VWS V12.08,2013-11-27 19:00:00,
2013-11-27 13:05:00,22.5,8.0,29.57,North,355,0.0,1.0,53,0.00,,---,0.00,VWS V12.08,2013-11-27 19:05:00,
2013-11-27 13:10:00,22.6,7.6,29.57,North,358,0.0,1.0,52,0.00,,---,0.00,VWS V12.08,2013-11-27 19:10:00,
2013-11-27 13:15:00,22.7,8.1,29.56,NNW,333,0.0,1.0,53,0.00,,---,0.00,VWS V12.08,2013-11-27 19:15:00,
2013-11-27 13:20:00,23.0,8.9,29.55,North,0,0.0,1.0,54,0.00,,---,0.00,VWS V12.08,2013-11-27 19:20:00,
2013-11-27 13:25:00,23.3,8.7,29.55,North,356,0.0,1.0,53,0.00,,---,0.00,VWS V12.08,2013-11-27 19:25:00,
2013-11-27 13:30:00,23.3,7.9,29.54,WNW,298,0.0,0.0,51,0.00,,---,0.00,VWS V12.08,2013-11-27 19:30:00,
2013-11-27 13:36:00,23.2,7.3,29.54,North,0,0.0,0.0,50,0.00,,---,0.00,VWS V12.08,2013-11-27 19:36:00,
2013-11-27 13:42:00,23.3,7.4,29.54,North,351,0.0,1.0,50,0.00,,---,0.00,VWS V12.08,2013-11-27 19:42:00,
2013-11-27 13:48:00,23.6,7.7,29.53,North,0,0.0,1.0,50,0.00,,---,0.00,VWS V12.08,2013-11-27 19:48:00,
2013-11-27 13:53:00,24.0,8.1,29.53,North,359,0.0,1.0,50,0.00,,---,0.00,VWS V12.08,2013-11-27 19:53:00,
2013-11-27 13:58:00,24.2,8.3,29.52,NNW,340,0.0,1.0,50,0.00,,---,0.00,VWS V12.08,2013-11-27 19:58:00,
2013-11-27 14:03:00,24.3,8.4,29.52,NNW,334,0.0,0.0,50,0.00,,---,0.00,VWS V12.08,2013-11-27 20:03:00,
2013-11-27 14:09:00,24.5,8.5,29.52,North,354,0.0,0.0,50,0.00,,---,0.00,VWS V12.08,2013-11-27 20:09:00,
2013-11-27 14:14:00,24.6,8.6,29.52,NNW,345,0.0,0.0,50,0.00,,---,0.00,VWS V12.08,2013-11-27 20:14:00,
2013-11-27 14:20:00,25.1,9.1,29.52,NNW,348,0.0,0.0,50,0.00,,---,0.00,VWS V12.08,2013-11-27 20:20:00,
2013-11-27 14:25:00,25.3,8.4,29.52,North,0,0.0,0.0,48,0.00,,---,0.00,VWS V12.08,2013-11-27 20:25:00,
2013-11-27 14:30:00,25.0,8.6,29.52,NNW,343,0.0,0.0,49,0.00,,---,0.00,VWS V12.08,2013-11-27 20:30:00,
2013-11-27 14:36:00,25.0,7.6,29.50,North,349,0.0,0.0,47,0.00,,---,0.00,VWS V12.08,2013-11-27 20:36:00,
2013-11-27 14:41:00,24.5,7.2,29.51,NNW,336,0.0,1.0,47,0.00,,---,0.00,VWS V12.08,2013-11-27 20:41:00,
2013-11-27 14:46:00,24.5,7.6,29.50,NW,314,0.0,1.0,48,0.00,,---,0.00,VWS V12.08,2013-11-27 20:46:00,
2013-11-27 14:51:00,25.0,8.6,29.49,North,0,0.0,1.0,49,0.00,,---,0.00,VWS V12.08,2013-11-27 20:51:00,
2013-11-27 14:56:00,25.1,8.2,29.49,WSW,244,0.0,1.0,48,0.00,,---,0.00,VWS V12.08,2013-11-27 20:56:00,
2013-11-27 15:01:00,25.0,7.6,29.50,NNW,332,0.0,0.0,47,0.00,,---,0.00,VWS V12.08,2013-11-27 21:01:00,
2013-11-27 15:06:00,25.0,8.1,29.51,NNW,348,0.0,1.0,48,0.00,,---,0.00,VWS V12.08,2013-11-27 21:06:00,
2013-11-27 15:12:00,25.3,8.4,29.50,North,358,0.0,1.0,48,0.00,,---,0.00,VWS V12.08,2013-11-27 21:12:00,
2013-11-27 15:17:00,25.7,8.7,29.49,SW,233,0.0,1.0,48,0.00,,---,0.00,VWS V12.08,2013-11-27 21:17:00,
2013-11-27 15:22:00,25.8,7.9,29.49,NNW,348,0.0,1.0,46,0.00,,---,0.00,VWS V12.08,2013-11-27 21:22:00,
2013-11-27 15:27:00,25.4,7.5,29.49,WNW,283,0.0,1.0,46,0.00,,---,0.00,VWS V12.08,2013-11-27 21:27:00,
2013-11-27 15:33:00,25.5,8.1,29.49,NNW,339,0.0,0.0,47,0.00,,---,0.00,VWS V12.08,2013-11-27 21:33:00,
2013-11-27 15:39:00,25.6,8.2,29.48,North,358,0.0,0.0,47,0.00,,---,0.00,VWS V12.08,2013-11-27 21:39:00,
2013-11-27 15:45:00,25.6,7.7,29.49,North,0,0.0,0.0,46,0.00,,---,0.00,VWS V12.08,2013-11-27 21:45:00,
2013-11-27 15:50:00,25.8,7.9,29.49,North,352,0.0,0.0,46,0.00,,---,0.00,VWS V12.08,2013-11-27 21:50:00,
2013-11-27 15:55:00,25.8,7.9,29.49,WNW,300,0.0,0.0,46,0.00,,---,0.00,VWS V12.08,2013-11-27 21:55:00,
2013-11-27 16:00:00,26.0,8.1,29.48,North,356,0.0,0.0,46,0.00,,---,0.00,VWS V12.08,2013-11-27 22:00:00,
2013-11-27 16:05:00,25.9,7.5,29.48,NW,324,0.0,0.0,45,0.00,,---,0.00,VWS V12.08,2013-11-27 22:05:00,
2013-11-27 16:10:00,25.9,7.5,29.48,SW,229,0.0,0.0,45,0.00,,---,0.00,VWS V12.08,2013-11-27 22:10:00,
2013-11-27 16:15:00,26.1,8.2,29.48,NW,326,0.0,0.0,46,0.00,,---,0.00,VWS V12.08,2013-11-27 22:15:00,
2013-11-27 16:20:00,26.0,8.1,29.47,NNW,345,0.0,0.0,46,0.00,,---,0.00,VWS V12.08,2013-11-27 22:20:00,
2013-11-27 16:26:00,25.9,8.0,29.47,NNW,345,0.0,0.0,46,0.00,,---,0.00,VWS V12.08,2013-11-27 22:26:00,
2013-11-27 16:31:00,25.9,8.5,29.48,NNW,331,0.0,0.0,47,0.00,,---,0.00,VWS V12.08,2013-11-27 22:31:00,
2013-11-27 16:37:00,25.7,8.3,29.46,WNW,298,0.0,0.0,47,0.00,,---,0.00,VWS V12.08,2013-11-27 22:37:00,
2013-11-27 16:42:00,25.6,8.2,29.47,WNW,295,0.0,0.0,47,0.00,,---,0.00,VWS V12.08,2013-11-27 22:42:00,
2013-11-27 16:47:00,25.4,8.0,29.47,WNW,284,0.0,0.0,47,0.00,,---,0.00,VWS V12.08,2013-11-27 22:47:00,
2013-11-27 16:52:00,25.3,7.9,29.47,WNW,291,0.0,0.0,47,0.00,,---,0.00,VWS V12.08,2013-11-27 22:52:00,
2013-11-27 16:57:00,25.2,8.3,29.47,WNW,301,0.0,0.0,48,0.00,,---,0.00,VWS V12.08,2013-11-27 22:57:00,
2013-11-27 17:03:00,25.1,8.2,29.47,SW,215,0.0,0.0,48,0.00,,---,0.00,VWS V12.08,2013-11-27 23:03:00,
2013-11-27 17:08:00,25.0,8.1,29.46,WSW,246,0.0,0.0,48,0.00,,---,0.00,VWS V12.08,2013-11-27 23:08:00,
2013-11-27 17:14:00,24.9,8.0,29.46,North,0,0.0,0.0,48,0.00,,---,0.00,VWS V12.08,2013-11-27 23:14:00,
2013-11-27 17:19:00,24.7,7.8,29.46,NW,309,0.0,0.0,48,0.00,,---,0.00,VWS V12.08,2013-11-27 23:19:00,
2013-11-27 17:24:00,24.6,8.2,29.46,North,0,0.0,0.0,49,0.00,,---,0.00,VWS V12.08,2013-11-27 23:24:00,
2013-11-27 17:29:00,24.4,8.0,29.45,WSW,251,0.0,0.0,49,0.00,,---,0.00,VWS V12.08,2013-11-27 23:29:00,
2013-11-27 17:34:00,24.4,8.4,29.46,NW,325,0.0,0.0,50,0.00,,---,0.00,VWS V12.08,2013-11-27 23:34:00,
2013-11-27 17:39:00,24.3,8.4,29.46,West,269,0.0,0.0,50,0.00,,---,0.00,VWS V12.08,2013-11-27 23:39:00,
2013-11-27 17:44:00,24.2,8.3,29.44,North,358,0.0,0.0,50,0.00,,---,0.00,VWS V12.08,2013-11-27 23:44:00,
2013-11-27 17:49:00,24.2,8.3,29.44,North,11,0.0,0.0,50,0.00,,---,0.00,VWS V12.08,2013-11-27 23:49:00,
2013-11-27 17:54:00,24.2,8.3,29.44,WNW,282,0.0,0.0,50,0.00,,---,0.00,VWS V12.08,2013-11-27 23:54:00,
2013-11-27 17:59:00,24.2,8.3,29.44,NNW,339,0.0,0.0,50,0.00,,---,0.00,VWS V12.08,2013-11-27 23:59:00,
2013-11-27 18:04:00,24.0,8.1,29.44,North,0,0.0,0.0,50,0.00,,---,0.00,VWS V12.08,2013-11-28 00:04:00,
2013-11-27 18:10:00,23.8,8.3,29.44,North,355,0.0,0.0,51,0.00,,---,0.00,VWS V12.08,2013-11-28 00:10:00,
2013-11-27 18:15:00,23.8,8.3,29.44,NNW,334,0.0,0.0,51,0.00,,---,0.00,VWS V12.08,2013-11-28 00:15:00,
2013-11-27 18:20:00,23.8,7.9,29.44,NW,318,0.0,0.0,50,0.00,,---,0.00,VWS V12.08,2013-11-28 00:20:00,
2013-11-27 18:25:00,23.7,7.8,29.45,North,359,0.0,0.0,50,0.00,,---,0.00,VWS V12.08,2013-11-28 00:25:00,
2013-11-27 18:30:00,23.6,7.7,29.44,North,359,0.0,0.0,50,0.00,,---,0.00,VWS V12.08,2013-11-28 00:30:00,
2013-11-27 18:36:00,23.6,8.1,29.44,NNW,331,0.0,0.0,51,0.00,,---,0.00,VWS V12.08,2013-11-28 00:36:00,
2013-11-27 18:42:00,23.6,8.1,29.43,SW,228,0.0,0.0,51,0.00,,---,0.00,VWS V12.08,2013-11-28 00:42:00,
2013-11-27 18:47:00,23.6,8.1,29.44,WSW,247,0.0,0.0,51,0.00,,---,0.00,VWS V12.08,2013-11-28 00:47:00,
2013-11-27 18:53:00,23.7,8.2,29.44,North,0,0.0,0.0,51,0.00,,---,0.00,VWS V12.08,2013-11-28 00:53:00,
2013-11-27 18:58:00,23.7,8.2,29.43,North,352,0.0,0.0,51,0.00,,---,0.00,VWS V12.08,2013-11-28 00:58:00,
2013-11-27 19:03:00,23.7,8.7,29.43,North,0,0.0,0.0,52,0.00,,---,0.00,VWS V12.08,2013-11-28 01:03:00,
2013-11-27 19:08:00,23.6,8.6,29.45,NW,304,0.0,0.0,52,0.00,,---,0.00,VWS V12.08,2013-11-28 01:08:00,
2013-11-27 19:13:00,23.7,8.7,29.45,WNW,289,0.0,0.0,52,0.00,,---,0.00,VWS V12.08,2013-11-28 01:13:00,
2013-11-27 19:18:00,23.7,8.7,29.44,North,0,0.0,0.0,52,0.00,,---,0.00,VWS V12.08,2013-11-28 01:18:00,
2013-11-27 19:23:00,23.8,8.8,29.43,South,178,0.0,0.0,52,0.00,,---,0.00,VWS V12.08,2013-11-28 01:23:00,
2013-11-27 19:29:00,23.8,8.8,29.42,North,0,0.0,0.0,52,0.00,,---,0.00,VWS V12.08,2013-11-28 01:29:00,
2013-11-27 19:35:00,23.7,9.1,29.41,North,351,0.0,0.0,53,0.00,,---,0.00,VWS V12.08,2013-11-28 01:35:00,
2013-11-27 19:40:00,23.5,8.9,29.41,NE,38,0.0,0.0,53,0.00,,---,0.00,VWS V12.08,2013-11-28 01:40:00,
2013-11-27 19:45:00,23.5,8.9,29.40,North,351,0.0,0.0,53,0.00,,---,0.00,VWS V12.08,2013-11-28 01:45:00,
2013-11-27 19:50:00,23.5,9.3,29.40,NNW,330,0.0,0.0,54,0.00,,---,0.00,VWS V12.08,2013-11-28 01:50:00,
2013-11-27 19:55:00,23.7,9.5,29.40,NNW,346,0.0,0.0,54,0.00,,---,0.00,VWS V12.08,2013-11-28 01:55:00,
2013-11-27 20:00:00,23.8,9.6,29.39,NNW,333,0.0,0.0,54,0.00,,---,0.00,VWS V12.08,2013-11-28 02:00:00,
2013-11-27 20:05:00,23.7,9.5,29.39,North,354,0.0,0.0,54,0.00,,---,0.00,VWS V12.08,2013-11-28 02:05:00,
2013-11-27 20:10:00,23.5,9.3,29.38,North,351,0.0,0.0,54,0.00,,---,0.00,VWS V12.08,2013-11-28 02:10:00,
2013-11-27 20:15:00,23.5,9.3,29.39,North,355,0.0,0.0,54,0.00,,---,0.00,VWS V12.08,2013-11-28 02:15:00,
2013-11-27 20:20:00,23.5,9.3,29.40,North,353,0.0,0.0,54,0.00,,---,0.00,VWS V12.08,2013-11-28 02:20:00,
2013-11-27 20:25:00,23.5,9.7,29.41,North,0,0.0,0.0,55,0.00,,---,0.00,VWS V12.08,2013-11-28 02:25:00,
2013-11-27 20:30:00,23.6,9.4,29.39,North,0,0.0,0.0,54,0.00,,---,0.00,VWS V12.08,2013-11-28 02:30:00,
2013-11-27 20:36:00,23.7,9.9,29.38,NNW,341,0.0,0.0,55,0.00,,---,0.00,VWS V12.08,2013-11-28 02:36:00,
2013-11-27 20:42:00,23.8,10.0,29.39,North,356,0.0,0.0,55,0.00,,---,0.00,VWS V12.08,2013-11-28 02:42:00,
2013-11-27 20:47:00,23.8,10.0,29.38,North,353,0.0,0.0,55,0.00,,---,0.00,VWS V12.08,2013-11-28 02:47:00,
2013-11-27 20:52:00,24.0,10.2,29.39,North,353,0.0,0.0,55,0.00,,---,0.00,VWS V12.08,2013-11-28 02:52:00,
2013-11-27 20:57:00,24.1,10.3,29.40,North,351,0.0,0.0,55,0.00,,---,0.00,VWS V12.08,2013-11-28 02:57:00,
2013-11-27 21:02:00,24.2,10.4,29.40,NW,323,0.0,0.0,55,0.00,,---,0.00,VWS V12.08,2013-11-28 03:02:00,
2013-11-27 21:07:00,24.3,10.5,29.41,North,354,0.0,0.0,55,0.00,,---,0.00,VWS V12.08,2013-11-28 03:07:00,
2013-11-27 21:12:00,24.4,10.6,29.41,North,353,0.0,1.0,55,0.00,,---,0.00,VWS V12.08,2013-11-28 03:12:00,
2013-11-27 21:18:00,24.4,10.6,29.41,North,352,0.0,1.0,55,0.00,,---,0.00,VWS V12.08,2013-11-28 03:18:00,
2013-11-27 21:23:00,24.5,10.7,29.40,NW,317,0.0,1.0,55,0.00,,---,0.00,VWS V12.08,2013-11-28 03:23:00,
2013-11-27 21:29:00,24.4,10.6,29.40,North,351,0.0,1.0,55,0.00,,---,0.00,VWS V12.08,2013-11-28 03:29:00,
2013-11-27 21:34:00,24.5,10.7,29.40,North,355,0.0,0.0,55,0.00,,---,0.00,VWS V12.08,2013-11-28 03:34:00,
2013-11-27 21:40:00,24.3,10.5,29.40,NNW,346,0.0,0.0,55,0.00,,---,0.00,VWS V12.08,2013-11-28 03:40:00,
2013-11-27 21:46:00,24.3,10.5,29.41,NW,318,0.0,0.0,55,0.00,,---,0.00,VWS V12.08,2013-11-28 03:46:00,
2013-11-27 21:51:00,24.3,10.9,29.41,NW,314,0.0,0.0,56,0.00,,---,0.00,VWS V12.08,2013-11-28 03:51:00,
2013-11-27 21:57:00,24.2,10.8,29.41,North,0,0.0,0.0,56,0.00,,---,0.00,VWS V12.08,2013-11-28 03:57:00,
2013-11-27 22:02:00,24.2,10.8,29.41,North,354,0.0,0.0,56,0.00,,---,0.00,VWS V12.08,2013-11-28 04:02:00,
2013-11-27 22:08:00,24.2,10.8,29.41,North,355,0.0,0.0,56,0.00,,---,0.00,VWS V12.08,2013-11-28 04:08:00,
2013-11-27 22:13:00,24.2,10.8,29.42,North,0,0.0,0.0,56,0.00,,---,0.00,VWS V12.08,2013-11-28 04:13:00,
2013-11-27 22:19:00,24.1,11.1,29.41,NNE,27,0.0,0.0,57,0.00,,---,0.00,VWS V12.08,2013-11-28 04:19:00,
2013-11-27 22:25:00,24.2,11.2,29.40,NW,310,0.0,0.0,57,0.00,,---,0.00,VWS V12.08,2013-11-28 04:25:00,
2013-11-27 22:30:00,24.2,11.2,29.40,North,0,0.0,0.0,57,0.00,,---,0.00,VWS V12.08,2013-11-28 04:30:00,
2013-11-27 22:35:00,24.2,11.2,29.41,North,0,0.0,0.0,57,0.00,,---,0.00,VWS V12.08,2013-11-28 04:35:00,
2013-11-27 22:41:00,24.3,11.3,29.41,North,350,0.0,0.0,57,0.00,,---,0.00,VWS V12.08,2013-11-28 04:41:00,
2013-11-27 22:46:00,24.3,11.3,29.40,NNW,342,0.0,0.0,57,0.00,,---,0.00,VWS V12.08,2013-11-28 04:46:00,
2013-11-27 22:51:00,24.3,11.3,29.40,North,0,0.0,0.0,57,0.00,,---,0.00,VWS V12.08,2013-11-28 04:51:00,
2013-11-27 22:56:00,24.3,11.3,29.39,North,351,0.0,0.0,57,0.00,,---,0.00,VWS V12.08,2013-11-28 04:56:00,
2013-11-27 23:01:00,24.3,11.3,29.40,North,351,0.0,0.0,57,0.00,,---,0.00,VWS V12.08,2013-11-28 05:01:00,
2013-11-27 23:02:00,24.3,11.3,29.39,North,350,0.0,0.0,57,0.00,,---,0.00,VWS V12.08,2013-11-28 05:02:00,
2013-11-27 23:03:00,24.3,11.3,29.39,North,352,0.0,0.0,57,0.00,,---,0.00,VWS V12.08,2013-11-28 05:03:00,
2013-11-27 23:04:00,24.3,11.3,29.39,North,353,0.0,0.0,57,0.00,,---,0.00,VWS V12.08,2013-11-28 05:04:00,
2013-11-27 23:09:00,24.2,11.6,29.40,North,0,0.0,0.0,58,0.00,,---,0.00,VWS V12.08,2013-11-28 05:09:00,
2013-11-27 23:15:00,24.1,11.5,29.39,NNW,337,0.0,0.0,58,0.00,,---,0.00,VWS V12.08,2013-11-28 05:15:00,
2013-11-27 23:20:00,24.0,11.4,29.38,NW,324,0.0,0.0,58,0.00,,---,0.00,VWS V12.08,2013-11-28 05:20:00,
2013-11-27 23:25:00,23.9,11.3,29.39,NW,305,0.0,0.0,58,0.00,,---,0.00,VWS V12.08,2013-11-28 05:25:00,
2013-11-27 23:31:00,23.8,11.2,29.38,NW,325,0.0,0.0,58,0.00,,---,0.00,VWS V12.08,2013-11-28 05:31:00,
2013-11-27 23:36:00,23.8,11.2,29.38,North,356,0.0,0.0,58,0.00,,---,0.00,VWS V12.08,2013-11-28 05:36:00,
2013-11-27 23:42:00,23.7,11.5,29.37,NNW,344,0.0,0.0,59,0.00,,---,0.00,VWS V12.08,2013-11-28 05:42:00,
2013-11-27 23:47:00,23.7,11.5,29.38,WNW,287,0.0,0.0,59,0.00,,---,0.00,VWS V12.08,2013-11-28 05:47:00,
2013-11-27 23:52:00,23.7,11.5,29.37,NNW,327,0.0,0.0,59,0.00,,---,0.00,VWS V12.08,2013-11-28 05:52:00,
2013-11-27 23:57:00,23.6,11.4,29.36,North,0,0.0,0.0,59,0.00,,---,0.00,VWS V12.08,2013-11-28 05:57:00,